This demonstration page uses our WeatherBlox Daily Observations layout. Learn more.

Left ArrowRight Arrow

Hourly Observations for October 14, 2021

Temp ( °F °C ) Dew Point ( °F °C ) Humidity (%) Winds ( mph kmh ) Pressure ( in mb ) Visibility ( mi km ) Precip ( " mm )
12:51 am 00:51 Clear 44 6.7 30 -1.1 58 58 E 5 7 29.86 1011 10 16 0.00 0.00
1:51 am 01:51 Clear 45 7.2 28 -2.2 52 52 SE 5 7 29.86 1011 10 16 0.00 0.00
2:51 am 02:51 Clear 42 5.6 30 -1.1 62 62 Calm 29.87 1012 10 16 0.00 0.00
3:51 am 03:51 Clear 42 5.6 29 -1.7 60 60 ESE 3 6 29.89 1012 10 16 0.00 0.00
4:51 am 04:51 Clear 39 3.9 29 -1.7 67 67 Calm 29.91 1013 10 16 0.00 0.00
5:51 am 05:51 Clear 39 3.9 29 -1.7 67 67 E 5 7 29.93 1014 10 16 0.00 0.00
6:51 am 06:51 Sunny 40 4.4 29 -1.7 65 65 SSE 3 6 29.96 1015 10 16 0.00 0.00
7:51 am 07:51 Sunny 49 9.4 30 -1.1 48 48 Calm 29.98 1015 10 16 0.00 0.00
8:51 am 08:51 Sunny 56 13.3 30 -1.1 37 37 W 5 7 30.01 1016 10 16 0.00 0.00
9:51 am 09:51 Sunny 61 16.1 31 -0.6 32 32 WNW 6 9 29.99 1016 10 16 0.00 0.00
10:51 am 10:51 Sunny 64 17.8 31 -0.6 29 29 W 9 15 29.97 1015 10 16 0.00 0.00
11:51 am 11:51 Sunny 69 20.6 29 -1.7 22 22 W 12 19 29.95 1014 10 16 0.00 0.00
12:51 pm 12:51 Sunny 71 21.7 25 -3.9 18 18 WNW 10 17 29.92 1013 10 16 0.00 0.00
1:51 pm 13:51 Sunny 73 22.8 22 -5.6 15 15 WNW 12 19 29.89 1012 10 16 0.00 0.00
2:51 pm 14:51 Sunny 75 23.9 27 -2.8 17 17 W 15 24 29.89 1012 10 16 0.00 0.00
3:51 pm 15:51 Sunny 75 23.9 27 -2.8 17 17 NW 14 22 29.88 1012 10 16 0.00 0.00
4:51 pm 16:51 Sunny 73 22.8 27 -2.8 18 18 NW 12 19 29.91 1013 10 16 0.00 0.00
5:51 pm 17:51 Clear 68 20 27 -2.8 21 21 NW 9 15 29.93 1013 10 16 0.00 0.00
6:51 pm 18:51 Clear 63 17.2 29 -1.7 28 28 NW 10 17 29.96 1014 10 16 0.00 0.00
7:51 pm 19:51 Clear 61 16.1 30 -1.1 31 31 NW 10 17 29.96 1015 10 16 0.00 0.00
8:51 pm 20:51 Clear 59 15 30 -1.1 33 33 NW 13 20 29.96 1015 10 16 0.00 0.00
9:51 pm 21:51 Clear 56 13.3 30 -1.1 37 37 NW 3 6 29.98 1015 10 16 0.00 0.00
10:51 pm 22:51 Clear 59 15 30 -1.1 33 33 WNW 10 17 29.98 1015 10 16 0.00 0.00
11:51 pm 23:51 Clear 55 12.8 30 -1.1 38 38 W 3 6 29.99 1016 10 16 0.00 0.00

Powered by AerisWeather